This demonstration page uses our WeatherBlox Daily Observations layout. Learn more.

Left ArrowRight Arrow

39.08367, -84.50855

Hourly Observations for January 8, 2017

Temp ( °F °C ) Dew Point ( °F °C ) Humidity (%) Winds ( mph kmh ) Pressure ( in mb ) Visibility ( mi km ) Precip ( " mm )
12:53 am 00:53 Cloudy 15 -9.4 8 -13.3 74 74 WSW 10 17 30.63 1037 10 16 0.00 0.00
1:53 am 01:53 Cloudy 15 -9.4 9 -12.8 77 77 WSW 9 15 30.63 1037 10 16 0.00 0.00
2:53 am 02:53 Cloudy with Light Snow 16 -8.9 10 -12.2 77 77 W 8 13 30.65 1038 6 10 0.00 0.00
3:53 am 03:53 Partly Cloudy 14 -10 9 -12.8 80 80 WNW 5 7 30.66 1038 10 16 0.00 0.00
4:53 am 04:53 Clear 14 -10 8 -13.3 77 77 NW 5 7 30.68 1039 10 16 0.00 0.00
5:53 am 05:53 Clear 12 -11.1 4 -15.6 70 70 WNW 6 9 30.70 1040 10 16 0.00 0.00
6:53 am 06:53 Clear 12 -11.1 2 -16.7 64 64 W 6 9 30.73 1041 10 16 0.00 0.00
7:53 am 07:53 Clear 9 -12.8 2 -16.7 73 73 NW 6 9 30.75 1041 10 16 0.00 0.00
8:53 am 08:53 Sunny 12 -11.1 4 -15.6 70 70 W 3 6 30.77 1042 10 16 0.00 0.00
9:53 am 09:53 Sunny 15 -9.4 5 -15 64 64 W 6 9 30.79 1043 10 16 0.00 0.00
10:53 am 10:53 Sunny 17 -8.3 7 -13.9 64 64 W 8 13 30.80 1043 10 16 0.00 0.00
11:53 am 11:53 Sunny 18 -7.8 7 -13.9 62 62 W 9 15 30.81 1043 10 16 0.00 0.00
12:53 pm 12:53 Mostly Sunny 20 -6.7 5 -15 52 52 W 6 9 30.77 1042 10 16 0.00 0.00
1:53 pm 13:53 Sunny 21 -6.1 5 -15 50 50 Calm 30.75 1041 10 16 0.00 0.00
2:53 pm 14:53 Sunny 21 -6.1 5 -15 50 50 VRB 3 6 30.73 1041 10 16 0.00 0.00
3:53 pm 15:53 Sunny 23 -5 5 -15 46 46 Calm 30.72 1040 10 16 0.00 0.00
4:53 pm 16:53 Sunny 21 -6.1 5 -15 50 50 WSW 3 6 30.74 1041 10 16 0.00 0.00
5:53 pm 17:53 Clear 17 -8.3 6 -14.4 62 62 SSW 6 9 30.75 1041 10 16 0.00 0.00
6:53 pm 18:53 Clear 17 -8.3 7 -13.9 64 64 Calm 30.74 1041 10 16 0.00 0.00
7:53 pm 19:53 Clear 15 -9.4 8 -13.3 74 74 Calm 30.75 1041 10 16 0.00 0.00
8:53 pm 20:53 Clear 15 -9.4 7 -13.9 70 70 S 6 9 30.73 1041 10 16 0.00 0.00
9:53 pm 21:53 Clear 16 -8.9 7 -13.9 67 67 S 5 7 30.72 1040 10 16 0.00 0.00
10:53 pm 22:53 Mostly Clear 15 -9.4 8 -13.3 74 74 SSW 5 7 30.71 1040 10 16 0.00 0.00
11:53 pm 23:53 Partly Cloudy 16 -8.9 7 -13.9 67 67 S 7 11 30.69 1039 10 16 0.00 0.00

Powered by AerisWeather